Location: Monrovia
(34.7865°N, 86.7139°W)
Time: 00:46:51
(UTC+00:00)

Atlas Centaur 2 - Pass Details

Date: 14 July 2020
Orbit: 459 x 1310 km, 30.4° (Epoch: 12 August)

Event Time Altitude Azimuth Distance (km) Brightness Sun altitude
Rises 02:50:20 0° 261° (W) 2,894 5.5 -18.9°
Reaches altitude 10° 02:53:19 10° 239° (WSW) 2,137 4.5 -19.3°
Maximum altitude 02:56:21 16° 201° (SSW) 1,915 3.8 -19.8°
Enters shadow 02:56:44 16° 196° (SSW) 1,941 3.8 -19.8°
